This is the latest recevied weather packets stored in our database for station/object KD9NSC. If no packets are shown the sender has not sent any weather packets the latest 10 day(s).
| Time | Temp. | Humidity | Pressure | Rain* | Wind** | Luminosity | Snow |
|---|---|---|---|---|---|---|---|
| 1777148399 | 6.67° C | 88% | 1017.9 hPa | 0 mm | - | 54 W/m² | - |
| 1777148096 | 6.67° C | 88% | 1017.8 hPa | 0 mm | - | 54 W/m² | - |
| 1777147792 | 6.67° C | 88% | 1017.9 hPa | 0 mm | - | 47 W/m² | - |
| 1777147488 | 6.67° C | 87% | 1018.1 hPa | 0 mm | - | 48 W/m² | - |
| 1777147183 | 6.67° C | 88% | 1017.9 hPa | 0 mm | - | 53 W/m² | - |
| 1777146879 | 6.67° C | 87% | 1018 hPa | 0 mm | - | 48 W/m² | - |
| 1777146576 | 6.67° C | 87% | 1017.9 hPa | 0 mm | - | 54 W/m² | - |
| 1777146271 | 6.67° C | 87% | 1018.1 hPa | 0 mm | - | 54 W/m² | - |
| 1777145968 | 6.67° C | 87% | 1018.2 hPa | 0 mm | - | 51 W/m² | - |
| 1777145664 | 6.67° C | 87% | 1018.3 hPa | 0 mm | - | 60 W/m² | - |
| 1777145360 | 6.67° C | 87% | 1018.3 hPa | 0 mm | - | 60 W/m² | - |
| 1777145055 | 6.67° C | 87% | 1018.4 hPa | 0 mm | - | 52 W/m² | - |
| 1777144749 | 6.67° C | 87% | 1018.3 hPa | 0 mm | - | 63 W/m² | - |
| 1777144443 | 6.67° C | 87% | 1018.4 hPa | 0 mm | - | 50 W/m² | - |
| 1777144140 | 6.67° C | 87% | 1018.1 hPa | 0 mm | - | 52 W/m² | - |
| 1777143835 | 6.67° C | 87% | 1018.3 hPa | 0 mm | - | 54 W/m² | - |
| 1777143533 | 6.67° C | 87% | 1018.2 hPa | 0 mm | - | 52 W/m² | - |
| 1777143227 | 7.22° C | 87% | 1018 hPa | 0 mm | - | 56 W/m² | - |
| 1777142924 | 6.67° C | 87% | 1017.9 hPa | 0 mm | - | 56 W/m² | - |
| 1777142620 | 7.22° C | 86% | 1017.8 hPa | 0 mm | - | 57 W/m² | - |
| 1777142318 | 7.22° C | 87% | 1017.8 hPa | 0 mm | - | 59 W/m² | - |
| 1777142017 | 6.67° C | 87% | 1017.6 hPa | 0 mm | - | 63 W/m² | - |
| 1777141714 | 6.67° C | 87% | 1017.4 hPa | 0 mm | - | 71 W/m² | - |
| 1777141412 | 7.22° C | 86% | 1017.5 hPa | 0 mm | - | 80 W/m² | - |
| 1777141108 | 7.22° C | 85% | 1017.3 hPa | 0 mm | - | 90 W/m² | - |
* Rain latest hour (hover to see other rain measurements)
** Current wind speed in m/s (hover to see current wind gust speed)